Location: Arcizac
(43.0933°N, 0.0112°E)
Time: 17:49:48
(UTC+00:00)

Lacrosse 5 - Pass Details

Date: 14 December 2019
Orbit: 717 x 722 km, 57.0° (Epoch: 10 January)

Event Time Altitude Azimuth Distance (km) Brightness Sun altitude
Rises 19:11:45 0° 237° (WSW) 3,113 6.1 -29.4°
Reaches altitude 10° 19:14:09 10° 241° (WSW) 2,195 5.1 -29.8°
Enters shadow 19:18:11 50° 276° (W) 911 2.6 -30.6°
